TimeCDT,TemperatureF,Dew PointF,Humidity,Sea Level PressureIn,VisibilityMPH,Wind Direction,Wind SpeedMPH,Gust SpeedMPH,PrecipitationIn,Events,Conditions,WindDirDegrees,DateUTC
12:54 AM,57.9,46.9,67,30.03,10.0,East,5.8,-,N/A,,Scattered Clouds,90,2013-05-18 05:54:00
1:54 AM,57.9,46.0,65,30.04,10.0,NE,4.6,-,N/A,,Scattered Clouds,50,2013-05-18 06:54:00
2:54 AM,55.9,46.9,72,30.05,10.0,Calm,Calm,-,N/A,,Scattered Clouds,0,2013-05-18 07:54:00
3:54 AM,55.9,46.9,72,30.06,10.0,NE,5.8,-,N/A,,Mostly Cloudy,50,2013-05-18 08:54:00
4:54 AM,57.0,48.0,72,30.05,10.0,East,3.5,-,N/A,,Mostly Cloudy,90,2013-05-18 09:54:00
5:54 AM,57.9,51.1,78,30.04,10.0,SE,4.6,-,N/A,,Overcast,130,2013-05-18 10:54:00
6:45 AM,59.0,53.6,82,30.07,9.0,ESE,5.8,-,N/A,,Overcast,120,2013-05-18 11:45:00
6:54 AM,59.0,53.1,81,30.06,10.0,ESE,6.9,-,N/A,,Overcast,120,2013-05-18 11:54:00
7:19 AM,60.8,55.4,82,30.06,7.0,ESE,4.6,-,N/A,,Mostly Cloudy,110,2013-05-18 12:19:00
7:54 AM,63.0,57.9,84,30.05,5.0,SE,6.9,-,N/A,,Haze,130,2013-05-18 12:54:00
8:54 AM,68.0,62.1,81,30.04,5.0,SE,8.1,-,N/A,,Haze,140,2013-05-18 13:54:00
9:54 AM,73.0,64.0,73,30.03,6.0,South,10.4,-,N/A,,Haze,170,2013-05-18 14:54:00
10:54 AM,78.1,63.0,60,30.03,6.0,SSE,11.5,-,N/A,,Haze,160,2013-05-18 15:54:00
11:54 AM,78.1,61.0,56,30.02,8.0,South,8.1,-,N/A,,Overcast,180,2013-05-18 16:54:00
12:54 PM,79.0,60.1,52,30.01,8.0,SSE,9.2,-,N/A,,Mostly Cloudy,150,2013-05-18 17:54:00
1:54 PM,80.6,60.8,51,30.00,8.0,South,9.2,-,N/A,,Mostly Cloudy,170,2013-05-18 18:54:00
2:54 PM,81.0,61.0,50,29.97,8.0,SE,12.7,-,N/A,,Mostly Cloudy,130,2013-05-18 19:54:00
3:54 PM,81.0,60.1,49,29.96,8.0,SSE,11.5,-,N/A,,Mostly Cloudy,150,2013-05-18 20:54:00
4:54 PM,80.6,60.8,51,29.96,10.0,SSE,10.4,-,N/A,,Mostly Cloudy,150,2013-05-18 21:54:00
5:54 PM,79.0,60.1,52,29.95,10.0,South,12.7,-,N/A,,Mostly Cloudy,170,2013-05-18 22:54:00
6:54 PM,78.1,60.1,54,29.94,10.0,SSE,12.7,-,N/A,,Scattered Clouds,160,2013-05-18 23:54:00
7:54 PM,75.9,60.1,58,29.95,10.0,SSE,8.1,-,N/A,,Mostly Cloudy,150,2013-05-19 00:54:00
8:54 PM,72.0,60.1,66,29.96,10.0,SE,3.5,-,N/A,,Mostly Cloudy,140,2013-05-19 01:54:00
9:54 PM,70.0,60.1,71,29.96,10.0,SE,4.6,-,N/A,,Scattered Clouds,130,2013-05-19 02:54:00
10:54 PM,69.1,60.1,73,29.94,10.0,ESE,8.1,-,N/A,,Partly Cloudy,120,2013-05-19 03:54:00
11:54 PM,66.9,60.1,79,29.93,9.0,ESE,8.1,-,N/A,,Partly Cloudy,120,2013-05-19 04:54:00